Regional Weather Roundup
Issued by NWS

Home | Current Version | Previous Version | Text Only | Print | Product List | Glossary Off
Versions: 1 2 3 4 5 6 7 8 9 10 11 12 13 14 15 16 17 18 19 20 21 22 23 24 25 26 27

000
ASUS45 KSLC 162110
RWRUT

UTAH REGIONAL WEATHER ROUNDUP
NATIONAL WEATHER SERVICE SALT LAKE CITY UT
300 PM MDT WED APR 16 2014

UTZ001>011-023>025-162200-

NORTHERN UTAH

CITY           SKY/WX    TMP DP  RH WIND       PRES   REMARKS
HILL AFB       SUNNY     53  14  21 NW8       30.00S
LOGAN          SUNNY     54  15  21 NE5       29.99F
OGDEN          SUNNY     55  19  24 SW14      29.99F
PROVO AIRPORT  MOSUNNY   55  21  26 SW8       29.99
SALT LAKE CITY MOSUNNY   56  12  17 NW12G21   30.00F
VERNAL         MOSUNNY   54  14  20 S6        29.94F
WENDOVER       SUNNY     59  16  18 SE10      29.98F
HEBER CITY     MOSUNNY   55  14  19 SW3       29.95F
WEST JORDAN    SUNNY     54  21  28 N17       30.00F

$$

UTZ012>022-026-027-162200-

SOUTHERN UTAH

CITY           SKY/WX    TMP DP  RH WIND       PRES   REMARKS
BRYCE CANYON   PTSUNNY   49  29  46 W12G28    30.02F
CEDAR CITY     MOSUNNY   59  24  26 N7        29.97F
MILFORD        SUNNY     61  19  19 NE14      29.96F
MOAB/CYNLANDS  SUNNY     61  13  15 VRB7      29.89F
PRICE          PTSUNNY   56  13  18 W9G20     29.94F
ST GEORGE      CLEAR     75  27  16 NW7       29.85F
KANAB          PTSUNNY   66  25  20 NE6       29.93F

$$

REGIONAL REPORTS     COLORADO/ARIZONA

CITY           SKY/WX    TMP DP  RH WIND       PRES   REMARKS
CRAIG, CO      PTSUNNY   48  10  21 W7        29.97F
GRAND JUNCTION CLOUDY    56  12  17 SW10      29.91F
RIFLE          MOSUNNY   56   9  15 VRB3      29.90F
MONTROSE       CLOUDY    56  13  18 N9        29.94F
CORTEZ         MOSUNNY   61  20  20 W20       29.90S
PAGE, AZ       CLOUDY    66  23  19 CALM      29.91F
GRAND CANYON   PTSUNNY   65  12  12 W13G20    29.97S
KINGMAN        SUNNY     82  11   7 SW15G22   29.82F
FLAGSTAFF      CLOUDY    65   9  11 W10G32    29.97F

$$

REGIONAL REPORTS    NEVADA/IDAHO/WYOMING

CITY           SKY/WX    TMP DP  RH WIND       PRES   REMARKS
LAS VEGAS, NV  MOSUNNY   82  14   8 S8        29.74F
ELY            PTSUNNY   55  25  31 NW14G20   30.00F
ELKO           CLOUDY    55  26  32 SW9       30.01F
POCATELLO, ID  MOSUNNY   54  13  19 W14       30.01F
BURLEY         SUNNY     55  14  19 W8        30.00F
EVANSTON, WY   MOSUNNY   46   7  20 W12G20    29.99F
ROCK SPRINGS   SUNNY     49   0  13 W10G20    29.96F

$$



USA.gov is the U.S. government's official web portal to all federal, state and local government web resources and services.